{"data":{"norad_id":53205,"intl_designator":"2022-084S","name":"STARLINK-4397","alt_names":[],"object_type":"PAYLOAD","status":"ACTIVE","operator":null,"country":"US","launch_date":"2022-07-22","launch_site_code":"AFWTR","launch_vehicle":null,"mission":null,"orbit_class":"UNKNOWN","rcs_meters":null,"size_class":null,"mass_kg":null,"dimensions":null,"purposes":["comms"],"wikipedia_slug":null,"has_3d_model":false,"image_url":null,"decayed_at":null,"tle_current":{"epoch":"2026-05-25T03:12:51.635808Z","epoch_age_seconds":59986,"freshness":"FRESH","line1":"1 53205U 22084S   26145.13393097 -.00011517  00000+0 -79409-3 0  9992","line2":"2 53205  97.4463 206.2175 0000141 337.7640  22.3581 15.05712884210880","mean_motion":15.05712884,"eccentricity":1.41e-5,"inclination_deg":97.4463,"raan_deg":206.2175,"arg_perigee_deg":337.764,"mean_anomaly_deg":22.3581,"bstar":-0.00079409,"rev_number":21088,"period_min":95.635762654469,"perigee_km":549.22059319741,"apogee_km":549.41594743603,"semimajor_km":6927.4552703167,"source":"CELESTRAK","updated_at":"2026-05-25T13:38:17.352756Z"}}}